Retour au catalogue

ZHANGJIANG GAOKE

ActifMétéoSSO
NORAD 59919·PAYLOAD·🇨🇳 China
Ce nom de satellite n'a pas encore été confirmé par des sources officielles.

Lancé May 30, 2024 depuis Jiuquan Satellite Launch Center

Loading…

Prochains Passages (prochaines 24 heures)

TLE

FraisSource: Space-Track

Époque: Sep 14, 2026, 22:42 UTC

1 59919U 24105C   26257.94625215  .00002030  00000-0  12359-3 0  9999
2 59919  97.5795 273.8550 0030264 235.7319 124.1045 15.11204267126704

Suivez ZHANGJIANG GAOKE en temps réel avec AllMySat

Download on the App Store